Location: Fleischmann Planetarium and Science Center
(39.5456°N, 119.8190°W)
Time: 22:32:49
(UTC-07:00)

Daily predictions for brighter satellites

Satellite Brightness Start Highest point End
(mag) Time Altitude Azimuth Time Altitude Azimuth Time Altitude Azimuth
Cosmos 1437 Rocket 2.8 19:35:38 10° S 19:39:37 71° E 19:43:41 10° NNE
Cosmos 1934 Rocket 4.1 19:36:16 10° SSE 19:42:13 53° E 19:48:06 10° NNE
Cosmos 1378 3.1 19:41:00 10° N 19:44:45 62° E 19:48:26 10° SSE
SL-27 R/B 2.9 19:41:47 10° N 19:45:13 41° ENE 19:48:40 10° SE
Meteor 1-22 Rocket 4.4 19:41:01 10° S 19:46:42 60° E 19:52:37 10° NNE
Cosmos 1844 Rocket 3.3 19:41:59 10° SSW 19:47:35 65° WNW 19:53:12 10° NNE
SJ-6B 2.6 19:43:57 10° SSE 19:47:40 75° ENE 19:51:24 10° N
Cosmos 1937 Rocket 3.6 19:45:31 10° SSW 19:50:45 86° WNW 19:56:06 10° NNE
Cosmos 1812 Rocket 3.5 19:47:29 10° S 19:51:53 75° E 19:56:17 10° N
SeaSat 1 2.5 19:47:02 10° SE 19:51:54 68° ENE 19:56:49 10° NNW
OE (NEXTSAT) 4.4 19:49:58 10° WSW 19:53:34 88° SE 19:57:10 10° ENE
Meteor 1-4 Rocket 3.7 19:55:47 10° SE 19:58:27 21° E 20:01:08 10° NE
Cosmos 1833 Rocket 4.0 19:54:55 10° N 19:59:15 22° NE 20:02:58 12° E
Cosmos 2344 3.7 19:52:58 10° SSW 20:00:39 87° ESE 20:09:09 10° NE
GP-B 4.4 19:57:43 10° SE 20:00:57 20° ENE 20:04:13 10° NNE
Cosmos 1818 4.4 19:56:24 10° NNW 20:01:22 34° NE 20:05:42 13° ESE
Cosmos 2278 Rocket 2.2 19:56:44 10° SSW 20:02:21 71° ESE 20:08:01 10° NNE
FENGYUN 3A 3.6 19:57:25 10° SSE 20:02:49 82° ENE 20:08:14 10° N
Helios 1B rocket 3.5 20:00:55 10° NE 20:04:18 24° E 20:07:38 10° SSE
Cosmos 1544 3.7 20:01:30 10° SSE 20:04:49 34° E 20:08:10 10° NNE
Delta 2 Rocket 4.4 20:00:52 10° W 20:05:27 40° SSW 20:09:04 12° SE
Resurs 01 Rocket 1.7 20:01:15 10° SSE 20:05:35 58° ENE 20:09:56 10° N
Cosmos 1821 Rocket 4.3 19:59:37 10° S 20:06:01 77° W 20:12:23 10° N
H-2A R/B 2.8 20:05:20 10° SSE 20:09:11 64° ENE 20:13:04 10° N
GPS 2-05 Rocket1 4.4 20:07:36 10° SSW 20:10:23 21° SSE 20:12:01 16° ESE
Cosmos 1758 3.8 20:07:22 10° SSE 20:11:01 36° E 20:14:41 10° NNE
Lacrosse 4 Rocket 3.6 20:08:21 10° WSW 20:11:52 28° NW 20:15:24 10° N
Helios 1A 3.7 20:10:16 12° SE 20:13:38 32° ENE 20:17:22 10° N
FengYun 1-2 T 4.3 20:09:39 10° SSE 20:15:13 85° WSW 20:20:53 10° NNW
Cosmos 2297 4.1 20:11:55 10° S 20:17:13 42° ESE 20:22:35 10° NE
ATLAS 5 CENTAUR R/B 2.8 20:13:55 10° SSE 20:17:35 23° ESE 20:21:27 10° ENE
Cosmos 1953 2.6 20:15:49 10° SSE 20:19:40 43° E 20:23:32 10° NNE
Cosmos 2098 Rocket 4.5 20:15:55 10° SSE 20:22:49 57° E 20:30:14 10° NNE
Cosmos-2242 4.0 20:20:40 16° SE 20:23:01 25° E 20:26:31 10° NNE
Cosmos 1939 Rocket 4.2 20:22:45 20° E 20:23:41 22° ENE 20:26:54 10° NNE
Cosmos 1605 Rocket 4.0 20:17:47 10° S 20:24:01 81° E 20:30:24 10° N
Meteor 1-24 Rocket 4.3 20:23:07 10° NNW 20:28:32 59° W 20:34:06 10° S
Fregat R/B Cluster 11 4.4 20:23:23 10° SSW 20:30:35 69° ESE 20:34:03 10° NE
ALOS 3.4 20:26:51 10° S 20:31:21 46° W 20:35:52 10° NNW
Cosmos 372 Rocket 4.2 20:26:55 10° S 20:31:43 44° ESE 20:36:35 10° NNE
Cosmos 2082 Rocket 2.6 20:28:00 10° N 20:33:26 44° ENE 20:36:28 24° ESE
CZ-3B DEB 3.7 20:24:44 10° WSW 20:35:45 52° NW 20:40:50 10° NE
Cosmos 1271 Rocket 3.5 20:35:44 30° ESE 20:36:03 31° E 20:39:37 10° NNE
Cosmos 1867 3.6 20:30:51 10° SSW 20:36:10 59° ESE 20:41:33 10° NE
CZ-4B DEB 3.3 20:36:15 35° ENE 20:36:15 35° ENE 20:39:05 10° N
Cosmos 2123 Rocket 4.4 20:32:26 10° NNW 20:38:42 68° W 20:44:55 10° S
Lacrosse 5 rocket 2.9 20:38:44 10° NNW 20:41:34 19° NNE 20:42:20 18° NE
ISS -1.8 20:38:57 10° S 20:39:59 16° S 20:39:59 16° S
Cosmos 158 Rocket 4.3 20:37:30 10° N 20:42:26 46° ENE 20:44:33 30° ESE
DASH 4.4 20:27:12 10° WSW 20:43:32 37° SSW 20:46:07 23° SE
Spot 2 Rocket 4.0 20:39:44 10° S 20:44:46 60° W 20:49:51 10° NNW
Cosmos 1802 Rocket 4.4 20:40:57 15° SSE 20:45:24 38° E 20:51:00 10° NNE
Resurs 1-3 4.3 20:43:53 10° S 20:48:10 54° W 20:52:29 10° NNW
CZ-4B DEB 4.4 20:47:20 42° SE 20:48:22 67° ENE 20:51:57 10° N
USA 215 3.2 20:43:58 10° NE 20:50:24 60° SE 20:56:49 10° SSW
Spot 1 4.2 20:49:07 16° SSE 20:52:50 87° WSW 20:57:44 10° NNW
RESURS DK-1 4.2 20:49:31 10° NW 20:53:09 30° WSW 20:56:44 10° SSW
Cosmos 1674 2.5 20:53:01 10° N 20:56:47 69° E 20:57:18 59° SE
Cosmos 2061 Rocket 4.1 20:51:01 10° SSE 20:57:10 54° E 21:03:24 10° NNE
BREEZE-M DEB (TANK) 4.3 20:55:55 10° NNW 20:57:19 16° NNE 20:57:19 16° NNE
H-2A R/B 4.3 20:52:22 10° SW 20:58:23 49° SSE 21:52:46 10° E
H-2A R/B 4.3 20:52:22 10° SW 20:58:24 49° SSE 21:52:46 10° E
H-2A R/B 4.3 20:52:21 10° SW 20:58:24 49° SSE 21:52:46 10° E
Envisat 2.9 21:00:25 32° SSE 21:02:46 74° ENE 21:07:50 10° N
Timation 2 Rocket 3.9 20:56:37 10° NNW 21:02:54 64° ENE 21:05:09 39° SE
Cosmos 1408 Rocket 3.5 20:58:30 10° N 21:03:00 85° E 21:04:46 37° S
H-2A R/B 4.2 21:04:42 12° NE 21:04:42 12° NE 21:05:48 10° NE
Tiangong 1 3.1 21:04:01 10° W 21:05:51 20° SW 21:05:51 20° SW
SAR-Lupe-4 4.5 21:05:01 24° SSW 21:06:51 46° W 21:10:20 10° NNW
YAOGAN 6 4.3 21:08:36 23° NNE 21:08:36 23° NNE 21:10:20 10° N
Lacrosse 5 3.6 21:04:29 10° W 21:08:57 31° NW 21:13:27 10° NNE
CZ-3 Stage 3 3.7 20:33:38 10° W 21:09:39 56° SSW 21:13:09 35° SE
Abrixas 4.0 21:07:39 10° WNW 21:09:27 35° WNW 21:09:27 35° WNW
Cosmos 1125 Rocket 4.1 21:06:31 10° SSW 21:11:37 57° WNW 21:16:46 10° N
SPOT 5 4.3 21:14:57 27° NE 21:14:57 27° NE 21:18:39 10° N
Cosmos 1048 Rocket 4.1 21:11:16 10° NNW 21:16:23 72° WSW 21:18:20 38° S
USA 186 4.4 21:18:05 14° WNW 21:18:05 14° WNW 21:18:52 10° NW
Cosmos 1459 Rocket 3.9 21:13:07 10° S 21:19:23 87° E 21:25:37 10° N
USA 267 4.3 21:20:08 25° ENE 21:22:25 32° NNE 21:28:03 10° NW
ERS-1 Rocket 2.9 21:23:25 62° ENE 21:23:25 62° ENE 21:28:20 10° N
Cosmos 1470 3.2 21:22:57 49° SW 21:23:44 61° W 21:27:42 10° N
Cosmos 2173 Rocket 3.9 21:17:54 10° S 21:24:04 88° W 21:30:21 10° N
Cosmos 1340 Rocket 3.3 21:25:10 10° NNW 21:28:27 56° NNW 21:28:27 56° NNW
COSMOS 2487 3.9 21:28:45 10° NNW 21:31:37 37° W 21:31:37 37° W
Cosmos 1733 4.4 21:37:22 42° W 21:37:25 42° W 21:41:08 10° N
Cosmos 1833 Rocket 3.2 21:38:02 10° NNW 21:43:31 54° WSW 21:44:43 45° SSW
Cosmos 2251 Rocket 4.0 21:43:22 10° NNW 21:47:31 51° NNE 21:47:31 51° NNE
Cosmos 2016 Rocket 4.1 21:53:19 39° SSW 21:55:41 69° W 22:01:51 10° N
ATLAS 5 CENTAUR R/B 3.0 21:57:29 10° WSW 22:01:55 40° NW 22:06:45 10° NNE
Cosmos 1725 Rocket 4.0 22:03:53 71° N 22:03:53 71° N 22:09:23 10° N
Cosmos 2082 Rocket 3.9 22:12:41 10° NW 22:17:12 25° WSW 22:18:22 23° WSW
BREEZE-M DEB (TANK) 4.3 22:15:05 10° W 22:19:43 69° NNW 22:39:24 10° ENE
Tsikada Rocket 4.3 22:13:48 10° N 22:18:59 62° NW 22:18:59 62° NW
Lacrosse 5 rocket 4.2 22:17:21 10° NW 22:18:03 15° NW 22:18:03 15° NW
USA 215 4.2 22:27:09 10° NE 22:33:14 43° NNW 22:39:19 10° W
H-2A R/B 4.0 22:45:20 26° NNW 22:45:20 26° NNW 22:47:33 10° NNW
USA 267 4.3 23:07:28 41° NW 23:07:28 41° NW 23:11:29 10° NW
